QPF
0.00 0.00 0.00 0.00 0.00 0.00 0.00 0.00 0.00 0.00 0.00 0.00 0.00 0.00 0.00 0.01 0.00 0.00 0.00 0.00 0.00 0.01 0.03 0.05 0.07 0.05 0.07 0.10 0.16 0.16 0.13 0.13 0.13 0.12 0.11 0.11 0.12 0.12 0.12 0.10 0.07 0.06 0.06 0.06
0.00 0.00 0.00 0.00 0.00 0.00 0.00 0.00 0.00 0.00 0.00 0.00 0.00 0.00 0.00 0.00 0.00 0.00 0.00 0.00 0.00 0.00 0.02 0.03 0.05 0.04 0.07 0.08 0.13 0.15 0.13 0.10 0.10 0.10 0.12 0.12 0.12 0.10 0.09 0.08 0.07 0.05 0.05 0.06
0.00 0.00 0.00 0.00 0.00 0.00 0.00 0.00 0.00 0.00 0.00 0.00 0.00 0.01 0.01 0.01 0.00 0.00 0.00 0.00 0.00 0.00 0.01 0.03 0.04 0.04 0.06 0.06 0.09 0.11 0.12 0.09 0.11 0.13 0.13 0.13 0.15 0.11 0.09 0.08 0.08 0.07 0.05 0.05
0.00 0.00 0.00 0.00 0.00 0.00 0.00 0.00 0.00 0.00 0.00 0.00 0.00 0.02 0.05 0.04 0.02 0.02 0.01 0.00 0.00 0.00 0.01 0.03 0.04 0.05 0.05 0.06 0.09 0.11 0.11 0.11 0.13 0.14 0.14 0.12 0.08 0.07 0.06 0.06 0.07 0.08 0.07 0.06
0.00 0.00 0.00 0.00 0.00 0.00 0.00 0.00 0.00 0.00 0.00 0.00 0.00 0.01 0.04 0.05 0.02 0.01 0.01 0.00 0.00 0.00 0.01 0.02 0.03 0.04 0.05 0.06 0.08 0.10 0.12 0.11 0.12 0.13 0.14 0.13 0.10 0.11 0.09 0.09 0.10 0.10 0.08 0.06
0.00 0.00 0.00 0.00 0.00 0.00 0.00 0.00 0.00 0.00 0.00 0.01 0.01 0.01 0.02 0.04 0.05 0.03 0.01 0.00 0.01 0.01 0.01 0.03 0.03 0.05 0.04 0.05 0.06 0.08 0.11 0.11 0.11 0.10 0.11 0.12 0.12 0.13 0.12 0.10 0.08 0.08 0.08 0.07
0.00 0.00 0.00 0.00 0.00 0.00 0.00 0.00 0.01 0.02 0.03 0.03 0.02 0.01 0.01 0.01 0.02 0.02 0.02 0.01 0.00 0.01 0.01 0.02 0.02 0.03 0.04 0.04 0.04 0.05 0.10 0.12 0.11 0.10 0.09 0.09 0.11 0.12 0.10 0.09 0.08 0.06 0.06 0.05
0.00 0.00 0.00 0.00 0.00 0.00 0.00 0.00 0.01 0.04 0.06 0.05 0.04 0.03 0.01 0.00 0.00 0.02 0.03 0.02 0.00 0.01 0.02 0.02 0.02 0.02 0.02 0.03 0.03 0.04 0.07 0.11 0.11 0.10 0.09 0.09 0.09 0.09 0.09 0.10 0.08 0.07 0.06 0.04
0.00 0.00 0.00 0.00 0.00 0.00 0.00 0.00 0.00 0.00 0.02 0.04 0.05 0.03 0.02 0.00 0.00 0.01 0.01 0.01 0.00 0.00 0.01 0.02 0.03 0.02 0.03 0.03 0.03 0.03 0.06 0.08 0.09 0.09 0.09 0.10 0.10 0.09 0.10 0.11 0.11 0.09 0.07 0.06
0.00 0.00 0.00 0.00 0.00 0.00 0.00 0.00 0.00 0.00 0.02 0.04 0.05 0.05 0.04 0.01 0.01 0.00 0.01 0.02 0.01 0.00 0.01 0.01 0.03 0.03 0.03 0.03 0.03 0.04 0.06 0.08 0.09 0.09 0.10 0.09 0.09 0.10 0.11 0.11 0.11 0.09 0.07 0.07
0.00 0.00 0.00 0.00 0.00 0.00 0.00 0.00 0.00 0.00 0.00 0.02 0.06 0.08 0.05 0.04 0.03 0.01 0.01 0.01 0.01 0.01 0.00 0.01 0.01 0.02 0.02 0.02 0.03 0.04 0.05 0.07 0.08 0.10 0.11 0.10 0.09 0.09 0.09 0.11 0.11 0.09 0.07 0.06
0.00 0.00 0.00 0.00 0.00 0.00 0.00 0.00 0.00 0.00 0.00 0.00 0.03 0.05 0.03 0.03 0.03 0.01 0.01 0.00 0.02 0.02 0.01 0.00 0.00 0.01 0.02 0.02 0.03 0.03 0.03 0.04 0.06 0.08 0.09 0.09 0.09 0.09 0.08 0.09 0.11 0.09 0.07 0.06
0.00 0.00 0.00 0.01 0.00 0.00 0.00 0.00 0.00 0.00 0.00 0.00 0.02 0.03 0.01 0.02 0.03 0.02 0.01 0.00 0.01 0.01 0.01 0.01 0.01 0.01 0.01 0.02 0.02 0.02 0.02 0.03 0.05 0.05 0.06 0.07 0.07 0.08 0.09 0.09 0.08 0.07 0.06 0.06
0.00 0.00 0.00 0.02 0.02 0.01 0.01 0.01 0.00 0.00 0.00 0.00 0.01 0.02 0.01 0.02 0.04 0.04 0.03 0.01 0.02 0.01 0.01 0.02 0.02 0.03 0.02 0.02 0.02 0.03 0.03 0.04 0.05 0.06 0.07 0.06 0.07 0.07 0.08 0.07 0.07 0.06 0.05 0.04
0.00 0.00 0.00 0.00 0.01 0.01 0.01 0.00 0.00 0.00 0.00 0.00 0.01 0.02 0.03 0.04 0.06 0.05 0.02 0.01 0.02 0.02 0.02 0.02 0.04 0.04 0.03 0.02 0.03 0.03 0.03 0.03 0.04 0.06 0.06 0.06 0.05 0.06 0.07 0.07 0.06 0.05 0.04 0.03
0.00 0.00 0.00 0.00 0.01 0.01 0.02 0.01 0.00 0.00 0.00 0.00 0.02 0.06 0.04 0.04 0.05 0.02 0.01 0.01 0.02 0.03 0.03 0.05 0.07 0.05 0.04 0.03 0.03 0.03 0.03 0.03 0.03 0.03 0.04 0.05 0.05 0.05 0.04 0.06 0.07 0.06 0.04 0.03
0.00 0.00 0.01 0.01 0.01 0.01 0.01 0.02 0.01 0.00 0.00 0.00 0.02 0.05 0.03 0.02 0.02 0.01 0.01 0.01 0.02 0.02 0.02 0.02 0.06 0.08 0.06 0.04 0.03 0.03 0.03 0.02 0.02 0.03 0.03 0.03 0.04 0.05 0.04 0.03 0.05 0.04 0.04 0.03
0.01 0.01 0.01 0.03 0.02 0.03 0.03 0.01 0.00 0.01 0.01 0.02 0.03 0.03 0.03 0.05 0.02 0.01 0.01 0.01 0.02 0.04 0.05 0.06 0.05 0.04 0.04 0.04 0.04 0.04 0.04 0.04 0.03 0.03 0.03 0.04 0.04 0.04 0.05 0.05 0.04 0.04 0.04 0.04
0.00 0.01 0.02 0.05 0.06 0.04 0.04 0.01 0.01 0.03 0.03 0.02 0.04 0.05 0.03 0.05 0.03 0.02 0.02 0.02 0.02 0.03 0.05 0.06 0.06 0.03 0.03 0.04 0.06 0.06 0.06 0.06 0.06 0.05 0.04 0.04 0.05 0.05 0.06 0.05 0.05 0.05 0.05 0.04
0.02 0.02 0.02 0.05 0.07 0.08 0.07 0.01 0.01 0.02 0.06 0.04 0.03 0.02 0.02 0.03 0.08 0.08 0.06 0.02 0.01 0.01 0.01 0.02 0.02 0.02 0.04 0.05 0.06 0.08 0.08 0.07 0.07 0.06 0.06 0.06 0.06 0.06 0.05 0.06 0.07 0.07 0.06 0.05
0.05 0.06 0.05 0.05 0.08 0.10 0.05 0.01 0.02 0.05 0.09 0.04 0.04 0.03 0.02 0.04 0.07 0.06 0.05 0.03 0.03 0.02 0.01 0.01 0.01 0.02 0.05 0.06 0.07 0.08 0.08 0.07 0.08 0.07 0.08 0.09 0.08 0.07 0.07 0.08 0.07 0.06 0.06 0.07
0.04 0.06 0.08 0.08 0.10 0.10 0.04 0.02 0.04 0.06 0.03 0.02 0.05 0.06 0.05 0.05 0.05 0.06 0.05 0.06 0.03 0.03 0.03 0.03 0.02 0.03 0.04 0.05 0.07 0.08 0.09 0.10 0.10 0.09 0.10 0.10 0.10 0.08 0.07 0.09 0.09 0.09 0.10 0.08
0.04 0.05 0.06 0.07 0.08 0.06 0.04 0.05 0.04 0.03 0.02 0.02 0.04 0.07 0.08 0.07 0.06 0.05 0.03 0.02 0.02 0.03 0.04 0.03 0.03 0.03 0.04 0.05 0.08 0.08 0.09 0.13 0.15 0.15 0.14 0.13 0.14 0.14 0.15 0.15 0.12 0.11 0.12 0.12
0.07 0.03 0.04 0.05 0.06 0.04 0.04 0.05 0.04 0.02 0.03 0.03 0.04 0.05 0.06 0.07 0.04 0.03 0.03 0.02 0.02 0.03 0.04 0.04 0.03 0.03 0.03 0.04 0.05 0.08 0.10 0.13 0.14 0.16 0.16 0.15 0.15 0.16 0.16 0.17 0.17 0.14 0.13 0.12
0.10 0.06 0.06 0.06 0.05 0.04 0.05 0.04 0.04 0.03 0.04 0.06 0.09 0.08 0.06 0.04 0.03 0.03 0.02 0.02 0.02 0.03 0.05 0.04 0.03 0.04 0.06 0.06 0.07 0.07 0.08 0.10 0.12 0.12 0.14 0.15 0.14 0.16 0.17 0.17 0.17 0.16 0.16 0.18
0.08 0.07 0.07 0.08 0.06 0.05 0.05 0.04 0.04 0.05 0.06 0.08 0.13 0.12 0.08 0.05 0.05 0.03 0.03 0.03 0.03 0.04 0.05 0.05 0.04 0.04 0.05 0.07 0.08 0.10 0.12 0.12 0.12 0.12 0.12 0.12 0.14 0.15 0.15 0.17 0.17 0.16 0.17 0.19
MSLP
1004.67 1005.08 1005.22 1005.14 1004.90 1004.60 1004.30 1004.08 1003.95 1003.89 1003.87 1003.85 1003.79 1003.66 1003.49 1003.30 1003.15 1003.09 1003.14 1003.32 1003.62 1003.99 1004.40 1004.79 1005.14 1005.44 1005.70 1005.96 1006.26 1006.63 1007.10 1007.65 1008.26 1008.89 1009.49 1010.03 1010.48 1010.83 1011.11 1011.35 1011.59 1011.87 1012.22 1012.65
1004.91 1005.11 1005.05 1004.82 1004.50 1004.20 1003.98 1003.89 1003.93 1004.04 1004.15 1004.21 1004.15 1003.97 1003.70 1003.38 1003.09 1002.92 1002.91 1003.07 1003.39 1003.82 1004.29 1004.75 1005.13 1005.43 1005.66 1005.86 1006.09 1006.40 1006.81 1007.35 1007.97 1008.64 1009.30 1009.90 1010.39 1010.76 1011.03 1011.24 1011.44 1011.67 1011.97 1012.37
1004.90 1004.91 1004.68 1004.34 1003.99 1003.75 1003.67 1003.79 1004.04 1004.35 1004.62 1004.76 1004.69 1004.43 1004.00 1003.49 1003.02 1002.68 1002.54 1002.64 1002.95 1003.42 1003.96 1004.49 1004.93 1005.27 1005.50 1005.68 1005.86 1006.11 1006.48 1006.99 1007.62 1008.32 1009.03 1009.69 1010.24 1010.66 1010.95 1011.15 1011.32 1011.51 1011.77 1012.13
1004.62 1004.46 1004.12 1003.73 1003.42 1003.32 1003.45 1003.82 1004.34 1004.88 1005.32 1005.54 1005.46 1005.09 1004.47 1003.73 1003.01 1002.44 1002.12 1002.10 1002.36 1002.84 1003.44 1004.04 1004.57 1004.97 1005.24 1005.42 1005.57 1005.78 1006.10 1006.57 1007.18 1007.90 1008.65 1009.36 1009.98 1010.46 1010.81 1011.04 1011.22 1011.39 1011.62 1011.94
1004.11 1003.83 1003.42 1003.05 1002.85 1002.93 1003.32 1003.97 1004.79 1005.59 1006.21 1006.52 1006.42 1005.93 1005.12 1004.12 1003.12 1002.29 1001.74 1001.56 1001.73 1002.19 1002.82 1003.50 1004.11 1004.59 1004.91 1005.11 1005.25 1005.41 1005.67 1006.09 1006.66 1007.36 1008.13 1008.89 1009.58 1010.14 1010.57 1010.86 1011.08 1011.28 1011.50 1011.79
1003.43 1003.07 1002.66 1002.35 1002.29 1002.59 1003.26 1004.21 1005.32 1006.37 1007.17 1007.57 1007.48 1006.89 1005.89 1004.65 1003.38 1002.27 1001.49 1001.12 1001.17 1001.58 1002.22 1002.96 1003.65 1004.21 1004.59 1004.81 1004.93 1005.04 1005.23 1005.56 1006.05 1006.71 1007.46 1008.25 1009.00 1009.65 1010.17 1010.57 1010.87 1011.11 1011.36 1011.65
1002.67 1002.28 1001.89 1001.68 1001.78 1002.29 1003.21 1004.43 1005.79 1007.06 1008.03 1008.53 1008.45 1007.79 1006.66 1005.22 1003.72 1002.39 1001.39 1000.84 1000.77 1001.11 1001.75 1002.52 1003.28 1003.90 1004.32 1004.56 1004.66 1004.71 1004.80 1005.02 1005.41 1005.97 1006.67 1007.46 1008.25 1008.99 1009.62 1010.13 1010.53 1010.86 1011.17 1011.49
1001.90 1001.51 1001.18 1001.07 1001.32 1001.99 1003.09 1004.51 1006.05 1007.49 1008.59 1009.18 1009.13 1008.46 1007.27 1005.72 1004.09 1002.59 1001.44 1000.75 1000.57 1000.85 1001.47 1002.25 1003.04 1003.71 1004.17 1004.41 1004.48 1004.45 1004.43 1004.51 1004.76 1005.21 1005.83 1006.58 1007.38 1008.18 1008.91 1009.54 1010.07 1010.52 1010.91 1011.28
1001.16 1000.82 1000.56 1000.53 1000.88 1001.66 1002.85 1004.37 1006.00 1007.52 1008.70 1009.35 1009.37 1008.74 1007.57 1006.02 1004.35 1002.80 1001.58 1000.82 1000.57 1000.79 1001.38 1002.16 1002.97 1003.66 1004.15 1004.39 1004.41 1004.31 1004.17 1004.11 1004.22 1004.52 1005.02 1005.70 1006.49 1007.32 1008.13 1008.87 1009.53 1010.09 1010.58 1011.03
1000.49 1000.22 1000.04 1000.09 1000.48 1001.28 1002.47 1003.97 1005.57 1007.08 1008.27 1008.96 1009.05 1008.52 1007.44 1005.99 1004.41 1002.91 1001.72 1000.95 1000.68 1000.89 1001.45 1002.23 1003.04 1003.74 1004.23 1004.47 1004.47 1004.31 1004.08 1003.90 1003.85 1004.01 1004.39 1004.97 1005.71 1006.53 1007.39 1008.21 1008.97 1009.64 1010.23 1010.76
999.90 999.75 999.66 999.76 1000.15 1000.90 1001.99 1003.34 1004.82 1006.22 1007.34 1008.03 1008.18 1007.77 1006.86 1005.60 1004.19 1002.85 1001.77 1001.09 1000.85 1001.05 1001.60 1002.36 1003.17 1003.88 1004.39 1004.64 1004.64 1004.46 1004.18 1003.92 1003.77 1003.80 1004.06 1004.53 1005.19 1005.98 1006.84 1007.70 1008.52 1009.27 1009.94 1010.54
999.41 999.40 999.42 999.57 999.94 1000.57 1001.49 1002.63 1003.87 1005.07 1006.06 1006.70 1006.89 1006.61 1005.91 1004.88 1003.72 1002.61 1001.71 1001.15 1000.98 1001.20 1001.75 1002.50 1003.29 1004.01 1004.55 1004.84 1004.89 1004.74 1004.47 1004.19 1003.99 1003.95 1004.10 1004.48 1005.05 1005.77 1006.59 1007.44 1008.27 1009.05 1009.76 1010.40
999.03 999.20 999.36 999.56 999.89 1000.39 1001.09 1001.96 1002.92 1003.85 1004.65 1005.19 1005.40 1005.23 1004.72 1003.96 1003.08 1002.22 1001.53 1001.12 1001.04 1001.30 1001.84 1002.57 1003.36 1004.09 1004.66 1005.03 1005.16 1005.10 1004.91 1004.68 1004.50 1004.43 1004.54 1004.84 1005.32 1005.96 1006.70 1007.49 1008.28 1009.04 1009.74 1010.38
998.79 999.16 999.47 999.75 1000.05 1000.42 1000.90 1001.47 1002.12 1002.77 1003.34 1003.74 1003.92 1003.85 1003.52 1003.00 1002.39 1001.78 1001.30 1001.04 1001.04 1001.33 1001.85 1002.55 1003.32 1004.06 1004.68 1005.14 1005.40 1005.48 1005.42 1005.31 1005.21 1005.19 1005.29 1005.55 1005.96 1006.50 1007.14 1007.84 1008.54 1009.23 1009.87 1010.46
998.71 999.28 999.75 1000.12 1000.41 1000.67 1000.95 1001.26 1001.60 1001.96 1002.30 1002.55 1002.68 1002.66 1002.48 1002.16 1001.78 1001.41 1001.11 1000.97 1001.04 1001.33 1001.82 1002.47 1003.19 1003.92 1004.59 1005.13 1005.53 1005.78 1005.90 1005.95 1005.99 1006.06 1006.21 1006.46 1006.82 1007.28 1007.81 1008.39 1008.98 1009.55 1010.09 1010.60
998.81 999.56 1000.17 1000.62 1000.92 1001.11 1001.22 1001.30 1001.40 1001.50 1001.62 1001.73 1001.80 1001.80 1001.73 1001.58 1001.39 1001.19 1001.04 1001.00 1001.09 1001.35 1001.78 1002.34 1003.00 1003.70 1004.37 1004.98 1005.50 1005.91 1006.22 1006.46 1006.66 1006.86 1007.09 1007.38 1007.71 1008.11 1008.55 1009.01 1009.47 1009.91 1010.33 1010.72
999.07 999.93 1000.65 1001.17 1001.48 1001.62 1001.62 1001.54 1001.44 1001.35 1001.30 1001.30 1001.32 1001.34 1001.34 1001.32 1001.27 1001.20 1001.15 1001.16 1001.25 1001.46 1001.79 1002.24 1002.79 1003.41 1004.05 1004.68 1005.28 1005.82 1006.29 1006.70 1007.07 1007.41 1007.74 1008.08 1008.43 1008.79 1009.16 1009.52 1009.86 1010.19 1010.49 1010.77
999.44 1000.34 1001.09 1001.64 1001.96 1002.07 1002.01 1001.83 1001.61 1001.41 1001.26 1001.18 1001.17 1001.21 1001.28 1001.35 1001.40 1001.43 1001.44 1001.47 1001.53 1001.65 1001.86 1002.17 1002.58 1003.08 1003.64 1004.24 1004.85 1005.46 1006.04 1006.58 1007.09 1007.56 1008.00 1008.41 1008.79 1009.16 1009.48 1009.78 1010.04 1010.28 1010.48 1010.67
999.86 1000.69 1001.40 1001.93 1002.23 1002.32 1002.23 1002.02 1001.76 1001.52 1001.33 1001.23 1001.23 1001.31 1001.44 1001.58 1001.71 1001.80 1001.85 1001.87 1001.88 1001.91 1001.99 1002.15 1002.40 1002.74 1003.18 1003.69 1004.26 1004.86 1005.48 1006.09 1006.69 1007.26 1007.79 1008.28 1008.72 1009.11 1009.45 1009.72 1009.96 1010.14 1010.29 1010.43
1000.24 1000.92 1001.52 1001.96 1002.22 1002.29 1002.21 1002.02 1001.78 1001.55 1001.40 1001.34 1001.38 1001.50 1001.68 1001.88 1002.06 1002.20 1002.26 1002.27 1002.23 1002.18 1002.14 1002.15 1002.23 1002.41 1002.69 1003.07 1003.54 1004.08 1004.68 1005.30 1005.94 1006.56 1007.16 1007.72 1008.23 1008.67 1009.05 1009.37 1009.61 1009.81 1009.96 1010.09
1000.53 1000.99 1001.41 1001.73 1001.92 1001.98 1001.92 1001.79 1001.62 1001.48 1001.40 1001.41 1001.50 1001.68 1001.91 1002.14 1002.35 1002.51 1002.58 1002.57 1002.49 1002.36 1002.23 1002.11 1002.05 1002.08 1002.21 1002.45 1002.79 1003.23 1003.76 1004.34 1004.96 1005.61 1006.24 1006.86 1007.44 1007.96 1008.41 1008.79 1009.11 1009.35 1009.55 1009.72
1000.68 1000.90 1001.11 1001.30 1001.43 1001.48 1001.47 1001.42 1001.36 1001.32 1001.34 1001.42 1001.58 1001.80 1002.05 1002.29 1002.50 1002.65 1002.71 1002.68 1002.58 1002.41 1002.21 1002.02 1001.86 1001.77 1001.78 1001.88 1002.10 1002.42 1002.85 1003.36 1003.95 1004.58 1005.23 1005.89 1006.53 1007.12 1007.67 1008.15 1008.55 1008.90 1009.18 1009.42
1000.70 1000.68 1000.72 1000.79 1000.87 1000.94 1001.00 1001.05 1001.11 1001.19 1001.31 1001.46 1001.66 1001.88 1002.11 1002.33 1002.50 1002.61 1002.64 1002.59 1002.47 1002.29 1002.07 1001.85 1001.65 1001.51 1001.43 1001.44 1001.56 1001.78 1002.11 1002.55 1003.07 1003.66 1004.31 1004.99 1005.67 1006.35 1006.99 1007.57 1008.09 1008.54 1008.93 1009.26
1000.61 1000.43 1000.35 1000.35 1000.42 1000.54 1000.69 1000.86 1001.04 1001.23 1001.43 1001.63 1001.82 1002.01 1002.18 1002.31 1002.40 1002.44 1002.42 1002.34 1002.21 1002.04 1001.85 1001.65 1001.47 1001.32 1001.22 1001.20 1001.26 1001.41 1001.66 1002.01 1002.47 1003.02 1003.64 1004.33 1005.05 1005.78 1006.50 1007.18 1007.81 1008.38 1008.87 1009.30
1000.50 1000.25 1000.13 1000.14 1000.25 1000.46 1000.72 1001.02 1001.31 1001.59 1001.84 1002.04 1002.19 1002.29 1002.34 1002.35 1002.32 1002.25 1002.16 1002.04 1001.90 1001.76 1001.62 1001.49 1001.37 1001.27 1001.21 1001.19 1001.23 1001.35 1001.54 1001.84 1002.23 1002.73 1003.32 1003.99 1004.73 1005.51 1006.29 1007.05 1007.77 1008.43 1009.02 1009.54
1000.45 1000.22 1000.16 1000.24 1000.47 1000.80 1001.19 1001.61 1002.01 1002.35 1002.61 1002.78 1002.85 1002.83 1002.73 1002.58 1002.40 1002.20 1002.02 1001.84 1001.71 1001.60 1001.52 1001.47 1001.45 1001.43 1001.44 1001.47 1001.52 1001.62 1001.79 1002.04 1002.38 1002.82 1003.37 1004.01 1004.74 1005.54 1006.36 1007.18 1007.97 1008.71 1009.37 1009.95
Thickness
5801 5790 5787 5799 5812 5816 5817 5816 5815 5827 5846 5837 5829 5828 5835 5842 5841 5835 5831 5826 5820 5814 5811 5806 5799 5793 5785 5778 5772 5767 5763 5761 5757 5754 5752 5750 5749 5750 5751 5752 5751 5750 5749 5749
5787 5784 5802 5816 5822 5820 5815 5810 5812 5825 5841 5835 5825 5824 5836 5841 5838 5837 5831 5825 5820 5813 5806 5801 5795 5789 5782 5775 5770 5765 5762 5759 5757 5754 5752 5751 5750 5749 5749 5749 5749 5748 5748 5748
5783 5800 5814 5810 5810 5810 5810 5808 5811 5814 5828 5832 5820 5811 5820 5831 5837 5835 5833 5829 5824 5814 5804 5797 5791 5785 5779 5773 5769 5766 5761 5759 5756 5754 5751 5749 5747 5746 5746 5745 5745 5747 5747 5746
5791 5809 5813 5807 5805 5807 5798 5817 5819 5815 5808 5805 5812 5785 5804 5817 5817 5819 5822 5825 5822 5816 5807 5798 5790 5783 5779 5775 5771 5767 5762 5759 5756 5753 5750 5747 5744 5742 5745 5745 5745 5745 5746 5745
5790 5803 5804 5799 5807 5811 5807 5823 5817 5811 5803 5798 5807 5789 5796 5812 5800 5807 5815 5822 5821 5816 5808 5798 5791 5784 5781 5777 5772 5767 5762 5758 5756 5753 5751 5748 5746 5746 5746 5746 5744 5743 5744 5745
5801 5816 5814 5810 5818 5819 5818 5812 5808 5804 5795 5775 5790 5783 5783 5802 5801 5806 5814 5822 5820 5816 5808 5799 5792 5786 5780 5777 5772 5767 5761 5757 5755 5752 5751 5748 5746 5745 5744 5743 5741 5741 5742 5744
5784 5802 5816 5819 5806 5811 5808 5787 5768 5760 5758 5761 5785 5783 5793 5816 5821 5818 5814 5817 5819 5815 5806 5797 5789 5783 5779 5775 5771 5767 5761 5756 5754 5752 5749 5748 5747 5746 5744 5743 5741 5741 5741 5742
5769 5775 5804 5812 5804 5798 5797 5791 5763 5746 5744 5755 5768 5768 5797 5824 5828 5827 5821 5818 5817 5812 5806 5798 5791 5785 5780 5776 5771 5766 5760 5756 5754 5751 5749 5748 5747 5746 5745 5744 5744 5743 5743 5744
5779 5779 5811 5817 5817 5809 5793 5791 5800 5780 5768 5755 5759 5775 5799 5820 5821 5820 5816 5812 5810 5809 5804 5798 5793 5787 5782 5777 5772 5768 5761 5757 5754 5752 5749 5747 5746 5746 5745 5745 5745 5744 5745 5745
5793 5779 5800 5813 5813 5811 5809 5802 5792 5777 5753 5743 5755 5761 5767 5788 5801 5807 5810 5807 5808 5808 5804 5798 5793 5788 5783 5779 5773 5768 5763 5758 5755 5752 5749 5746 5745 5746 5745 5744 5744 5744 5744 5744
5796 5778 5784 5796 5790 5790 5794 5792 5789 5785 5778 5754 5743 5749 5777 5783 5792 5799 5804 5809 5808 5805 5802 5797 5793 5789 5784 5779 5773 5767 5762 5758 5754 5751 5749 5748 5746 5746 5745 5743 5743 5744 5743 5742
5794 5783 5772 5784 5805 5811 5800 5793 5787 5765 5763 5769 5756 5756 5793 5791 5793 5798 5802 5806 5806 5804 5803 5799 5793 5788 5783 5778 5773 5767 5763 5758 5755 5753 5750 5748 5747 5746 5744 5743 5743 5743 5742 5741
5787 5773 5754 5758 5772 5787 5786 5789 5789 5782 5771 5765 5756 5756 5792 5789 5789 5795 5798 5801 5801 5801 5800 5796 5791 5786 5782 5777 5773 5769 5764 5761 5758 5754 5751 5748 5747 5746 5744 5743 5742 5742 5740 5739
5787 5768 5758 5744 5748 5760 5766 5777 5784 5777 5765 5763 5766 5765 5775 5778 5777 5782 5788 5794 5796 5795 5794 5791 5786 5783 5781 5777 5773 5769 5765 5763 5760 5756 5752 5749 5747 5746 5744 5744 5742 5741 5739 5737
5777 5760 5763 5764 5764 5763 5764 5770 5777 5773 5774 5765 5766 5765 5766 5771 5774 5775 5783 5789 5789 5788 5788 5786 5782 5779 5778 5775 5772 5770 5767 5765 5762 5757 5753 5750 5749 5747 5745 5743 5742 5740 5738 5737
5765 5753 5753 5752 5761 5760 5757 5767 5773 5773 5775 5771 5767 5760 5771 5775 5776 5775 5779 5780 5779 5781 5781 5781 5779 5777 5775 5773 5771 5769 5767 5765 5762 5758 5754 5752 5750 5747 5745 5743 5741 5738 5737 5736
5752 5744 5737 5736 5751 5749 5740 5757 5764 5767 5771 5764 5751 5752 5765 5764 5765 5767 5770 5772 5771 5772 5775 5775 5775 5774 5773 5773 5772 5769 5768 5766 5762 5758 5756 5753 5751 5747 5745 5743 5740 5737 5735 5734
5739 5734 5733 5733 5731 5713 5742 5769 5766 5760 5761 5763 5759 5759 5759 5758 5761 5764 5766 5765 5764 5767 5769 5769 5772 5773 5773 5773 5772 5771 5769 5765 5762 5759 5757 5754 5751 5748 5746 5743 5740 5738 5736 5734
5742 5730 5723 5720 5716 5722 5739 5753 5754 5746 5741 5751 5748 5748 5749 5753 5751 5750 5754 5757 5758 5761 5763 5766 5770 5771 5772 5771 5771 5769 5767 5765 5762 5759 5758 5756 5753 5749 5746 5743 5741 5739 5736 5734
5734 5729 5717 5713 5703 5700 5716 5744 5756 5743 5722 5736 5739 5735 5737 5739 5728 5728 5741 5746 5750 5754 5757 5761 5765 5768 5767 5768 5769 5766 5765 5763 5761 5761 5759 5758 5754 5750 5747 5744 5741 5739 5736 5733
5710 5709 5707 5704 5698 5704 5719 5736 5741 5712 5705 5723 5728 5728 5727 5723 5721 5726 5733 5736 5740 5744 5749 5754 5756 5758 5759 5762 5763 5761 5761 5760 5761 5761 5760 5757 5754 5750 5747 5743 5740 5737 5733 5730
5705 5701 5698 5697 5689 5686 5711 5717 5708 5703 5715 5716 5717 5717 5716 5717 5720 5720 5721 5724 5729 5733 5738 5743 5746 5748 5752 5754 5754 5754 5754 5758 5759 5758 5756 5753 5750 5748 5745 5740 5736 5733 5729 5725
5702 5704 5701 5693 5686 5694 5704 5700 5703 5709 5707 5708 5708 5709 5709 5708 5708 5708 5709 5713 5718 5722 5727 5732 5734 5736 5740 5744 5746 5745 5749 5753 5753 5751 5748 5747 5745 5741 5741 5736 5730 5727 5723 5720
5689 5700 5695 5685 5684 5691 5692 5693 5696 5698 5699 5701 5702 5702 5701 5697 5697 5697 5700 5703 5706 5711 5715 5719 5722 5723 5725 5731 5736 5738 5741 5744 5744 5742 5740 5739 5735 5732 5731 5728 5724 5721 5717 5715
5678 5684 5681 5676 5678 5682 5681 5683 5684 5687 5690 5690 5690 5690 5688 5687 5687 5687 5689 5691 5694 5698 5702 5706 5708 5710 5713 5718 5723 5728 5732 5734 5734 5733 5732 5730 5726 5722 5718 5714 5711 5710 5706 5706
5675 5674 5670 5667 5674 5672 5668 5673 5677 5676 5676 5675 5674 5674 5675 5675 5674 5675 5676 5679 5682 5685 5689 5692 5695 5697 5700 5705 5709 5714 5719 5722 5722 5720 5719 5718 5715 5711 5707 5702 5696 5693 5693 5693